www.pogodaiklimat.ru

Погода и климат >> Архив погоды >> Ирак >> Rifai


ПОГОДА в Rifai

  • Прогноз погоды в Rifai
  • Монитор погоды в Rifai
  • Климат города

АРХИВ ПОГОДЫ в Rifai

Время (UTC), дата Ветер
(напр.,м/с)
 
Видим.   Явления Облачность Т
(С)
Тd
(С)
f
(%)
Тe
(С)
Тes
(С)
Комфортность P
(гПа)
Po
(гПа)
Тmin
(С)
Tmax
(С)
R
(мм)
R24
(мм)
S
(см)
00 12.12 З 3 10 км ясно +7.6 +0.5 61 +5 +5 1023.0 1023.0
03 12.12 З 4 10 км ясно +6.8 -1.2 57 +4 +4 1022.9 1023.0
06 12.12 СЗ 5 10 км ясно +10.2 +0.3 50 +8 +9 1023.4 1023.0 +5.4
09 12.12 З 9 8000 м пыльный позёмок ясно +17.8 -1.1 28 +17 +17 1021.6 1022.0
12 12.12 СЗ 8 8000 м пыльный позёмок ясно +20.2 +0.5 27 +20 +20 1019.8 1020.0
15 12.12 СЗ 7 10 км 3/3 1050 м
[Sc]
+16.2 +1.7 38 +15 +15 1020.1 1020.0
18 12.12 З 5 10 км ясно +12.4 +1.6 48 +10 +10 1021.0 1021.0 +20.4
21 12.12 СЗ 5 10 км ясно +11.4 +1.4 50 +9 +9 1021.0 1021.0
00 13.12 З 6 10 км ясно +7.2 +0.6 63 +3 +3 1020.5 1021.0
03 13.12 СЗ 5 10 км ясно +5.8 +1.2 72 +2 +2 1019.2 1019.0
06 13.12 З 3 10 км 3/0
[Ac trans]
+8.4 +0.3 57 +6 +8 1020.4 1020.0 +5.0
09 13.12 З 2 10 км 3/0
[Ac trans]
+16.0 +2.7 41 +16 +22 1018.3 1018.0
12 13.12 З 2 10 км 3/0
[Ci sp]
+20.0 +2.9 32 +21 +23 комфорт 1016.8 1017.0
15 13.12 штиль 0 10 км 1/0
[Ci fib]
+16.4 +7.1 54 +16 +16 1016.8 1017.0
18 13.12 штиль 0 10 км ясно +11.8 +6.2 69 +11 +11 1016.8 1017.0 +20.2
21 13.12 штиль 0 10 км ясно +9.6 +4.6 71 +9 +9 1016.4 1016.0
00 14.12 штиль 0 10 км ясно +8.0 +2.7 69 +7 +7 1016.3 1016.0
12 14.12 Ю 5 10 км ясно +19.4 +4.4 37 +20 +21 1014.2 1014.0
18 14.12 штиль 0 10 км ясно +10.0 +5.6 74 +9 +9 1014.1 1014.0 +19.6
03 15.12 штиль 0 10 км ясно +6.8 +2.9 76 +6 +6 1015.4 1015.0
06 15.12 штиль 0 10 км ясно +12.6 +7.7 72 +12 +16 1015.7 1016.0 +6.6
09 15.12 штиль 0 10 км ясно +20.2 +10.6 54 +21 +31 комфорт 1015.3 1015.0
12 15.12 З 2 10 км ясно +22.0 +5.0 33 +22 +25 комфорт 1014.5 1015.0
15 15.12 З 2 10 км ясно +17.4 +8.9 57 +18 +18 1015.9 1016.0
18 15.12 З 2 10 км ясно +14.2 +8.2 67 +14 +14 1017.1 1017.0 +22.0
21 15.12 штиль 0 10 км 3/0
[Ac trans]
+12.8 +8.8 77 +12 +12 1018.5 1019.0
00 16.12 штиль 0 10 км ясно +11.8 +9.4 85 +11 +11 1018.5 1019.0
06 16.12 СЗ 3 5000 м мгла ясно +12.4 +6.5 67 +11 +13 1021.8 1022.0 +10.0
09 16.12 С 3 5000 м пыль ясно +19.2 +7.4 46 +20 +26 1020.8 1021.0
12 16.12 СВ 2 6000 м пыль ясно +22.3 +9.0 43 +24 +26 комфорт 1019.7 1020.0
15 16.12 штиль 0 8000 м пыль ясно +18.2 +9.0 55 +18 +18 1021.0 1021.0
18 16.12 СЗ 4 8000 м пыль ясно +14.6 +6.8 59 +13 +13 1022.1 1022.0 +22.6
21 16.12 СЗ 3 10 км ясно +12.6 +7.2 70 +11 +11 1022.5 1023.0
00 17.12 СЗ 3 10 км ясно +11.2 +6.0 70 +10 +10 1022.8 1023.0
03 17.12 СЗ 3 8000 м пыль ясно +9.8 +4.9 72 +8 +8 1023.2 1023.0
06 17.12 СЗ 3 10 км ясно +10.6 +3.7 62 +9 +11 1024.3 1024.0 +9.6
09 17.12 З 3 10 км ясно +18.8 +4.6 39 +19 +25 1023.6 1024.0
12 17.12 СЗ 4 10 км ясно +21.8 +2.8 29 +22 +23 комфорт 1021.5 1022.0
15 17.12 З 2 10 км ясно +17.2 +4.8 44 +18 +18 1021.9 1022.0
18 17.12 СЗ 2 10 км ясно +13.4 +4.7 56 +13 +13 1023.1 1023.0 +22.0
21 17.12 СЗ 2 10 км ясно +11.8 +3.1 55 +11 +11 1023.5 1024.0
00 18.12 СЗ 2 10 км ясно +9.8 +3.3 64 +9 +9 1023.5 1024.0
03 18.12 З 4 10 км ясно +6.8 +1.2 67 +3 +3 1024.2 1024.0
06 18.12 З 2 10 км ясно +10.2 +2.7 60 +9 +12 1025.3 1025.0 +6.2
09 18.12 З 1 10 км ясно +18.4 +5.2 42 +20 +28 1024.5 1025.0
15 18.12 штиль 0 10 км ясно +17.6 +6.2 47 +18 +18 1023.7 1024.0

 

Местоположение метеостанции Rifai (Ирак): широта 31.72 долгота 46.10 высота над уровнем моря 6 м.

В архиве по умолчанию представлена погода в Rifai за последнюю неделю. Архивные данные за месяц целиком и за предыдущие месяцы, начиная с января 2011 года, Вы можете получить, выбрав интересующий диапазон дат из раскрывающегося списка и нажав кнопку "Ввод!".

Внимание! Время в таблицах - всемирное. Для получения местного времени необходимо прибавить поправку, которая в Rifai равна 3 ч.

Смотрите также архив погоды в соседних городах и на ближайших метеорологических станциях:

Погода в Kut-Al-Hai (Ирак) (50 км)
Погода в Nasiriya (Ирак) (72 км)
Погода в Samawah (Ирак) (92 км)
Погода в Ubaydah Bin Al Jarrah (Ирак) (92 км)
Погода в Ali Al-Gharbi (Ирак) (102 км)
Погода в Amarah (Ирак) (102 км)
Погода в Diwaniya (Ирак) (110 км)
Погода в Badrah (Ирак) (154 км)
Погода в Azizyah (Ирак) (165 км)
Погода в Najaf (Ирак) (171 км)

Пояснения к столбцам:

Ветер - указаны скорость ветра в м/с - средняя за 10 мин, порывы в срок и между сроками (в фигурных скобках) и направление, откуда дует ветер: С - северный, СВ - северо-восточный, В - восточный, ЮВ - юго-восточный, Ю - южный, ЮЗ - юго-западный, З - западный, СЗ - северо-западный.
Видимость - горизонтальная дальность видимости в метрах или километрах. При видимости от 1 до 10 км при отсутствии осадков обычно наблюдается дымка, при ухудшении видимости до 1 км и менее - туман. В сухую погоду видимость может ухудшаться дымом, пылью или мглою.
Явления - указаны атмосферные явления, наблюдавшиеся в срок или в последний час перед сроком; фигурными скобками обозначены явления, наблюдавшиеся между сроками (за 1-3 часа до срока); квадратными скобками обозначены град или гололедные отложения с указанием их диаметра в мм.
Облачность - указаны через наклонную черту общая и нижняя облачность в баллах и высота нижней границы облаков в метрах; квадратными скобками обозначены формы облаков: Ci - перистые, Cs - перисто-слоистые, Cc - перисто-кучевые, Ac - высококучевые, As - высокослоистые, Sc - слоисто-кучевые, Ns - слоисто-дождевые, Cu - кучевые, Cb - кучево-дождевые. Подробнее классификацию облаков см. в Атласе облаков (PDF).
T - Температура воздуха - температура, измеренная на высоте 2 м над землей.
Td - Температура точки росы - температура, при понижении до которой содержащийся в воздухе водяной пар достигнет насыщения.
f - Относительная влажность воздуха - влажноcть воздуха, измеренная на высоте 2 м над землей.
Te - Эффективная температура - температура, которую ощущает одетый по сезону человек в тени. Характеристика душности погоды. При расчете учитывается влияние влажности воздуха и скорости ветра на теплоощущения человека.
Tes - Эффективная температура на солнце - температура, которую ощущает человек, с поправкой на солнечный нагрев. Характеристика знойности погоды. Зависит от высоты солнца над горизонтом, облачности и скорости ветра. Ночью, в пасмурную погоду, а также при ветре 12 м/с и более поправка равна нулю.
P - Атмосферное давление - приведенное к уровню моря атмосферное давление.
Po - Атмосферное давление - измеренное на уровне метеостанции атмосферное давление.
Tmin - Минимальная температура - минимум температуры воздуха на высоте 2 м над землей.
Tmax - Максимальная температура - максимум температуры воздуха на высоте 2 м над землей.
R - Количество осадков - Количество выпавших осадков за период времени, мм. При наведении курсора мыши на число - период времени, за который выпало указанное количество осадков.
R24 - Количество осадков - Количество выпавших осадков за 24 часа, мм.
S - Снежный покров - Высота снежного покрова, см. При наведении курсора мыши на число - состояние снежного покрова и степень покрытия местности в баллах.